Time,TemperatureF,DewpointF,PressureIn,WindDirection,WindDirectionDegrees,WindSpeedMPH,WindSpeedGustMPH,Humidity,HourlyPrecipIn,Conditions,Clouds,dailyrainin,SoftwareType,DateUTC
2013-09-25 00:03:00,68.0,60.0,29.85,ESE,107,3.0,10.0,75,0.00,,,0.00,,2013-09-25 05:03:00,
2013-09-25 00:23:00,67.0,59.0,29.85,East,89,4.0,7.0,76,0.00,,,0.00,,2013-09-25 05:23:00,
2013-09-25 00:33:00,67.0,59.0,29.85,East,89,4.0,7.0,76,0.00,,,0.00,,2013-09-25 05:33:00,
2013-09-25 00:53:00,66.0,59.0,29.85,ESE,116,0.0,4.0,79,0.00,,,0.00,,2013-09-25 05:53:00,
2013-09-25 01:02:00,66.0,59.0,29.85,ESE,116,0.0,4.0,79,0.00,,,0.00,,2013-09-25 06:02:00,
2013-09-25 01:23:00,65.0,59.0,29.85,ESE,116,0.0,1.0,81,0.00,,,0.00,,2013-09-25 06:23:00,
2013-09-25 01:32:00,65.0,59.0,29.85,ESE,116,0.0,1.0,81,0.00,,,0.00,,2013-09-25 06:32:00,
2013-09-25 01:52:00,65.0,59.0,29.85,East,86,0.0,3.0,82,0.00,,,0.00,,2013-09-25 06:52:00,
2013-09-25 02:01:00,65.0,59.0,29.85,East,86,0.0,3.0,82,0.00,,,0.00,,2013-09-25 07:01:00,
2013-09-25 02:22:00,65.0,59.0,29.85,East,83,1.0,5.0,82,0.00,,,0.00,,2013-09-25 07:22:00,
2013-09-25 02:33:00,65.0,59.0,29.85,East,83,1.0,5.0,82,0.00,,,0.00,,2013-09-25 07:33:00,
2013-09-25 02:53:00,66.0,60.0,29.84,ENE,74,4.0,7.0,82,0.00,,,0.00,,2013-09-25 07:53:00,
2013-09-25 03:02:00,66.0,60.0,29.84,ENE,74,4.0,7.0,82,0.00,,,0.00,,2013-09-25 08:02:00,
2013-09-25 03:21:00,66.0,60.0,29.84,East,88,2.0,7.0,81,0.00,,,0.00,,2013-09-25 08:21:00,
2013-09-25 03:32:00,66.0,60.0,29.84,East,88,2.0,7.0,81,0.00,,,0.00,,2013-09-25 08:32:00,
2013-09-25 03:53:00,65.0,59.0,29.83,East,87,2.0,7.0,82,0.00,,,0.00,,2013-09-25 08:53:00,
2013-09-25 04:02:00,65.0,59.0,29.83,East,87,2.0,7.0,82,0.00,,,0.00,,2013-09-25 09:02:00,
2013-09-25 04:22:00,65.0,60.0,29.84,East,89,1.0,5.0,83,0.00,,,0.00,,2013-09-25 09:22:00,
2013-09-25 04:33:00,65.0,60.0,29.84,East,89,1.0,5.0,83,0.00,,,0.00,,2013-09-25 09:33:00,
2013-09-25 04:54:00,64.0,59.0,29.84,East,98,3.0,7.0,84,0.00,,,0.00,,2013-09-25 09:54:00,
2013-09-25 05:03:00,64.0,59.0,29.84,East,98,3.0,7.0,84,0.00,,,0.00,,2013-09-25 10:03:00,
2013-09-25 05:23:00,63.0,58.0,29.85,East,93,0.0,3.0,85,0.00,,,0.00,,2013-09-25 10:23:00,
2013-09-25 05:32:00,63.0,58.0,29.85,East,93,0.0,3.0,85,0.00,,,0.00,,2013-09-25 10:32:00,
2013-09-25 05:53:00,63.0,59.0,29.85,NE,42,0.0,3.0,87,0.00,,,0.00,,2013-09-25 10:53:00,
2013-09-25 06:02:00,63.0,59.0,29.85,NE,42,0.0,3.0,87,0.00,,,0.00,,2013-09-25 11:02:00,
2013-09-25 06:22:00,62.0,58.0,29.86,ENE,62,1.0,5.0,88,0.00,,,0.00,,2013-09-25 11:22:00,
2013-09-25 06:33:00,62.0,58.0,29.86,ENE,62,1.0,5.0,88,0.00,,,0.00,,2013-09-25 11:33:00,
2013-09-25 06:52:00,62.0,59.0,29.86,East,93,2.0,5.0,89,0.00,,,0.00,,2013-09-25 11:52:00,
2013-09-25 07:02:00,62.0,59.0,29.86,East,93,2.0,5.0,89,0.00,,,0.00,,2013-09-25 12:02:00,
2013-09-25 07:22:00,61.0,58.0,29.87,ENE,59,1.0,6.0,89,-99.99,,,-99.99,,2013-09-25 12:22:00,
2013-09-25 07:32:00,61.0,58.0,29.87,ENE,59,1.0,6.0,89,-99.99,,,-99.99,,2013-09-25 12:32:00,
2013-09-25 07:52:00,62.0,58.0,29.88,ENE,74,1.0,4.0,88,0.00,,,0.00,,2013-09-25 12:52:00,
2013-09-25 08:22:00,64.0,59.0,29.88,ESE,106,1.0,7.0,85,0.00,,,0.00,,2013-09-25 13:22:00,
2013-09-25 08:32:00,64.0,59.0,29.88,ESE,106,1.0,7.0,85,0.00,,,0.00,,2013-09-25 13:32:00,
2013-09-25 08:52:00,66.0,60.0,29.88,East,85,1.0,5.0,82,0.00,,,0.00,,2013-09-25 13:52:00,
2013-09-25 09:22:00,68.0,61.0,29.89,East,82,4.0,8.0,78,0.00,,,0.00,,2013-09-25 14:22:00,
2013-09-25 09:32:00,68.0,61.0,29.89,East,82,4.0,8.0,78,0.00,,,0.00,,2013-09-25 14:32:00,
2013-09-25 09:52:00,70.0,61.0,29.89,ENE,71,4.0,8.0,74,0.00,,,0.00,,2013-09-25 14:52:00,
2013-09-25 10:02:00,70.0,61.0,29.89,ENE,71,4.0,8.0,74,0.00,,,0.00,,2013-09-25 15:02:00,
2013-09-25 10:22:00,72.0,62.0,29.89,ENE,63,1.0,4.0,72,0.00,,,0.00,,2013-09-25 15:22:00,
2013-09-25 10:33:00,72.0,62.0,29.89,ENE,63,1.0,4.0,72,0.00,,,0.00,,2013-09-25 15:33:00,
2013-09-25 10:54:00,75.0,64.0,29.89,NE,54,1.0,4.0,69,0.00,,,0.00,,2013-09-25 15:54:00,
2013-09-25 11:03:00,75.0,64.0,29.89,NE,54,1.0,4.0,69,0.00,,,0.00,,2013-09-25 16:03:00,
2013-09-25 11:23:00,76.0,63.0,29.89,ENE,69,1.0,7.0,64,0.00,,,0.00,,2013-09-25 16:23:00,
2013-09-25 11:32:00,76.0,63.0,29.89,ENE,69,1.0,7.0,64,0.00,,,0.00,,2013-09-25 16:32:00,
2013-09-25 11:53:00,78.0,63.0,29.89,NE,54,3.0,5.0,60,0.00,,,0.00,,2013-09-25 16:53:00,
2013-09-25 12:03:00,78.0,63.0,29.89,NE,54,3.0,5.0,60,0.00,,,0.00,,2013-09-25 17:03:00,
2013-09-25 12:23:00,78.0,63.0,29.88,ENE,60,4.0,8.0,61,0.00,,,0.00,,2013-09-25 17:23:00,
2013-09-25 12:34:00,78.0,63.0,29.88,ENE,60,4.0,8.0,61,0.00,,,0.00,,2013-09-25 17:34:00,
2013-09-25 12:52:00,80.0,64.0,29.88,NE,56,4.0,8.0,58,0.00,,,0.00,,2013-09-25 17:52:00,
2013-09-25 13:02:00,80.0,64.0,29.88,NE,56,4.0,8.0,58,0.00,,,0.00,,2013-09-25 18:02:00,
2013-09-25 13:22:00,80.0,63.0,29.87,NE,38,2.0,8.0,56,0.00,,,0.00,,2013-09-25 18:22:00,
2013-09-25 13:32:00,80.0,63.0,29.87,NE,38,2.0,8.0,56,0.00,,,0.00,,2013-09-25 18:32:00,
2013-09-25 13:52:00,81.0,63.0,29.86,ENE,66,5.0,12.0,54,0.00,,,0.00,,2013-09-25 18:52:00,
2013-09-25 14:02:00,81.0,63.0,29.86,ENE,66,5.0,12.0,54,0.00,,,0.00,,2013-09-25 19:02:00,
2013-09-25 14:22:00,82.0,63.0,29.85,NE,46,1.0,8.0,52,0.00,,,0.00,,2013-09-25 19:22:00,
2013-09-25 14:32:00,82.0,63.0,29.85,NE,46,1.0,8.0,52,0.00,,,0.00,,2013-09-25 19:32:00,
2013-09-25 14:52:00,82.0,62.0,29.85,ENE,58,3.0,7.0,51,0.00,,,0.00,,2013-09-25 19:52:00,
2013-09-25 15:03:00,82.0,62.0,29.85,ENE,58,3.0,7.0,51,0.00,,,0.00,,2013-09-25 20:03:00,
2013-09-25 15:22:00,81.0,61.0,29.85,East,100,1.0,6.0,51,0.00,,,0.00,,2013-09-25 20:22:00,
2013-09-25 15:32:00,81.0,61.0,29.85,East,100,1.0,6.0,51,0.00,,,0.00,,2013-09-25 20:32:00,
2013-09-25 15:52:00,82.0,61.0,29.85,ENE,71,1.0,7.0,50,0.00,,,0.00,,2013-09-25 20:52:00,
2013-09-25 16:01:00,82.0,61.0,29.85,ENE,71,1.0,7.0,50,0.00,,,0.00,,2013-09-25 21:01:00,
2013-09-25 16:22:00,81.0,60.0,29.85,ENE,60,0.0,7.0,49,0.00,,,0.00,,2013-09-25 21:22:00,
2013-09-25 16:34:00,81.0,60.0,29.85,ENE,60,0.0,7.0,49,0.00,,,0.00,,2013-09-25 21:34:00,
2013-09-25 16:55:00,82.0,61.0,29.84,ENE,73,3.0,5.0,49,0.00,,,0.00,,2013-09-25 21:55:00,
2013-09-25 17:04:00,82.0,61.0,29.84,ENE,73,3.0,5.0,49,0.00,,,0.00,,2013-09-25 22:04:00,
2013-09-25 17:23:00,81.0,61.0,29.85,NE,54,0.0,4.0,50,0.00,,,0.00,,2013-09-25 22:23:00,
2013-09-25 17:33:00,81.0,61.0,29.85,NE,54,0.0,4.0,50,0.00,,,0.00,,2013-09-25 22:33:00,
2013-09-25 17:34:00,80.0,61.0,29.85,NE,54,0.0,1.0,52,0.00,,,0.00,,2013-09-25 22:34:00,
2013-09-25 17:53:00,80.0,61.0,29.85,NE,54,0.0,1.0,52,0.00,,,0.00,,2013-09-25 22:53:00,
2013-09-25 18:03:00,80.0,61.0,29.85,NE,54,0.0,1.0,52,0.00,,,0.00,,2013-09-25 23:03:00,
2013-09-25 18:12:00,80.0,61.0,29.85,NE,54,0.0,1.0,52,0.00,,,0.00,,2013-09-25 23:12:00,
2013-09-25 18:22:00,80.0,61.0,29.85,NE,54,0.0,1.0,52,0.00,,,0.00,,2013-09-25 23:22:00,
2013-09-25 18:53:00,77.0,61.0,29.86,NE,54,0.0,1.0,58,0.00,,,0.00,,2013-09-25 23:53:00,
2013-09-25 19:02:00,77.0,61.0,29.86,NE,54,0.0,1.0,58,0.00,,,0.00,,2013-09-26 00:02:00,
2013-09-25 19:22:00,77.0,61.0,29.86,NE,54,0.0,1.0,58,0.00,,,0.00,,2013-09-26 00:22:00,
2013-09-25 19:52:00,73.0,62.0,29.87,NE,54,0.0,0.0,69,0.00,,,0.00,,2013-09-26 00:52:00,
2013-09-25 20:02:00,73.0,62.0,29.87,NE,54,0.0,0.0,69,0.00,,,0.00,,2013-09-26 01:02:00,
2013-09-25 20:22:00,71.0,62.0,29.87,NE,54,0.0,1.0,72,0.00,,,0.00,,2013-09-26 01:22:00,
2013-09-25 20:32:00,71.0,62.0,29.87,NE,54,0.0,1.0,72,0.00,,,0.00,,2013-09-26 01:32:00,
2013-09-25 20:52:00,70.0,61.0,29.88,NE,54,0.0,2.0,74,0.00,,,0.00,,2013-09-26 01:52:00,
2013-09-25 21:02:00,70.0,61.0,29.88,NE,54,0.0,2.0,74,0.00,,,0.00,,2013-09-26 02:02:00,
2013-09-25 21:21:00,71.0,61.0,29.89,NE,54,1.0,3.0,71,0.00,,,0.00,,2013-09-26 02:21:00,
2013-09-25 21:32:00,71.0,61.0,29.89,NE,54,1.0,3.0,71,0.00,,,0.00,,2013-09-26 02:32:00,
2013-09-25 21:42:00,71.0,61.0,29.89,NE,54,1.0,3.0,71,0.00,,,0.00,,2013-09-26 02:42:00,
2013-09-25 22:22:00,69.0,60.0,29.90,ENE,64,1.0,3.0,74,0.00,,,0.00,,2013-09-26 03:22:00,
2013-09-25 22:34:00,69.0,60.0,29.90,ENE,64,1.0,3.0,74,0.00,,,0.00,,2013-09-26 03:34:00,
2013-09-25 22:55:00,69.0,60.0,29.91,East,91,2.0,5.0,74,0.00,,,0.00,,2013-09-26 03:55:00,
2013-09-25 23:04:00,69.0,60.0,29.91,East,91,2.0,5.0,74,0.00,,,0.00,,2013-09-26 04:04:00,
2013-09-25 23:24:00,69.0,60.0,29.90,East,91,2.0,6.0,73,0.00,,,0.00,,2013-09-26 04:24:00,
2013-09-25 23:34:00,69.0,60.0,29.90,East,91,2.0,6.0,73,0.00,,,0.00,,2013-09-26 04:34:00,
2013-09-25 23:54:00,68.0,60.0,29.90,ESE,118,2.0,6.0,75,0.00,,,0.00,,2013-09-26 04:54:00,